Location: North Runcton
(52.7000°N, 0.4333°E)
Time: 20:53:49
(UTC+00:00)

PKM - Pass Details

Date: 19 May 2025
Orbit: 411 x 13725 km, 55.3° (Epoch: 18 June)

Event Time Altitude Azimuth Distance (km) Brightness Sun altitude
Rises 22:16:50 0° 235° (SW) 2,428 7.0 -14.3°
Reaches altitude 10° 22:18:41 10° 232° (SW) 1,481 5.9 -14.4°
Maximum altitude 22:21:22 61° 150° (SSE) 526 3.4 -14.5°
Drops below altitude 10° 22:25:26 10° 69° (ENE) 2,242 6.9 -14.8°
Sets 22:28:59 0° 67° (ENE) 3,989 8.2 -15.0°
